Hourly Data Report for November 13, 2019

OTTAWA INTL A
ONTARIO
Current Station Operator: NAVCAN

45°19'00.000" N
75°40'00.000" W
114.90 m
6106001
71628
YOW

Download Data

Hourly Data (November 2019)
Hourly Data Report for November 13, 2019
TIME Temp Definition
°C
Dew Point Definition
°C
Rel Hum Definition
%
Wind Dir Definition
10's deg

Wind Spd Definition
km/h
Visibility Definition
km
Stn Press Definition
kPa
Hmdx Definition


Wind Chill Definition


Weather Definition


00:00 -13.0 -17.4 70 28 25 24.1 100.67   -23 LegendNANA
01:00 -13.7 -18.2 69 28 27 24.1 100.71   -24 Mainly Clear
02:00 -13.6 -17.4 73 31 26 24.1 100.78   -24 LegendNANA
03:00 -14.1 -18.0 73 31 30 24.1 100.81   -25 LegendNANA
04:00 -14.1 -18.4 70 30 39 24.1 100.87   -26 Clear
05:00 -14.2 -18.5 70 30 34 24.1 100.94   -26 LegendNANA
06:00 -14.0 -18.1 72 30 32 24.1 101.01   -25 LegendNANA
07:00 -14.2 -17.7 75 30 22 24.1 101.09   -24 Clear
08:00 -13.9 -17.9 72 30 24 24.1 101.21   -24 LegendNANA
09:00 -12.9 -17.8 67 31 26 24.1 101.30   -23 LegendNANA
10:00 -12.1 -16.9 68 30 17 24.1 101.37   -20 Clear
11:00 -11.1 -16.0 67 30 16 24.1 101.40   -18 LegendNANA
12:00 -10.3 -16.0 63 28 12 24.1 101.40   -16 LegendNANA
13:00 -9.6 -16.1 60 30 12 24.1 101.41   -15 Clear
14:00 -9.2 -15.9 58 23 9 24.1 101.42   -14 LegendNANA
15:00 -9.1 -15.2 61 26 14 24.1 101.45   -15 LegendNANA
16:00 -9.4 -15.6 61 24 5 22.5 101.44   -12 Clear
17:00 -10.5 -15.6 67 36 2 24.1 101.46   -12 LegendNANA
18:00 -10.8 -16.3 64 14 7 24.1 101.47   -15 LegendNANA
19:00 -10.1 -15.7 64 17 11 24.1 101.43   -16 Mostly Cloudy
20:00 -10.8 -15.3 70 16 9 24.1 101.43   -16 LegendNANA
21:00 -10.9 -14.7 74 16 6 24.1 101.41   -15 LegendNANA
22:00 -10.8 -14.2 76 12 8 24.1 101.40   -15 Cloudy
23:00 -10.5 -13.5 79 15 8 24.1 101.41   -15 LegendNANA

Notes on Data Quality.

Legend

  • E = Estimated
  • M = Missing
  • NA = Not Available*
  • [empty] = Indicates an unobserved value
Date modified: